[[{"header":{"parameterUnit":"m.s-1","parameterCategory":2,"la1":30.2992,"la2":30.254,"lo1":-89.0895,"lo2":-89.0443,"dy":0.0025,"dx":0.0025,"nx":19,"ny":19,"refTime":"2026-03-22T09:00:00:Z","depth":"0","parameterNumber":2,"parameterNumberName":"U-component_of_CURRENTS"},"data":[0,0,0,0.0648,0.065,0.0771,0.0771,0.0801,0.0801,0,0,0,0,0,0,0,0,0,0,0,0.0619,0.062,0.0648,0.065,0.0771,0.0771,0.0801,0.0801,0,0,0,0,0,0,0,0,0,0,0,0.0619,0.062,0.0621,0.0651,0.077,0.0771,0.0801,0.0745,0,0,0,0,0,0,0,0,0,0,0.0645,0.0639,0.062,0.0621,0.0651,0.077,0.0771,0.0743,0.0748,0.0707,0,0.0733,0,0.0753,0.0799,0.0799,0,0,0,0.0664,0.0635,0.0654,0.0621,0.0652,0.077,0.072,0.0747,0.0752,0.0713,0.0734,0.0735,0.0753,0.0799,0.0799,0.0859,0.086,0,0,0.0657,0.065,0.0651,0.0658,0.0689,0.0716,0.0724,0.0752,0.0763,0.0734,0.0736,0.0754,0.0799,0.0798,0.0859,0.086,0,0,0,0.0629,0.0645,0.0667,0.0656,0.068,0.0719,0.0728,0.0763,0.0768,0.0737,0.0754,0.0798,0.0798,0.0858,0.0859,0.108,0,0,0,0.0626,0.0627,0.0664,0.0662,0.068,0.0741,0.0739,0.0767,0.077,0.0754,0.0798,0.0798,0.0857,0.0858,0.1072,0.114,0,0,0,0.0613,0.0626,0.0639,0.0661,0.0704,0.0741,0.075,0.0769,0.0778,0.0799,0.0798,0.0856,0.0858,0.1065,0.1127,0.1246,0,0,0,0.06,0.0654,0.064,0.071,0.0703,0.0783,0.0751,0.0797,0.082,0.0798,0.0857,0.0859,0.1063,0.112,0.1238,0.1316,0.1359,0,0,0.0663,0.0662,0.0705,0.0694,0.0793,0.0767,0.0898,0.0899,0.0838,0.0838,0.0841,0.1075,0.1127,0.1245,0.1439,0.1479,0,0,0,0.0721,0.0763,0.0792,0.0843,0.0869,0.0969,0.0954,0.0983,0.1041,0.0859,0.1056,0.108,0.1149,0.1178,0.121,0.1293,0.0869,0.0868,0.0868,0.0795,0.0821,0.0913,0.0971,0.1021,0.1093,0.119,0.1216,0.1132,0.1201,0.1249,0.1466,0.1501,0.1525,0.1611,0.1248,0.1249,0.1249,0.125,0.0923,0.0983,0.1022,0.1122,0.1186,0.1277,0.1415,0.1433,0.1566,0.1447,0.1504,0.1393,0.1574,0.1652,0.1264,0.1261,0.1259,0.1258,0.1257,0.1,0.1029,0.1082,0.1197,0.132,0.1415,0.1597,0.1679,0.1731,0.1823,0.1806,0.1802,0.1879,0.1848,0.1849,0.185,0.185,0.1851,0.1852,0.1035,0.1091,0.1166,0.1287,0.1356,0.1505,0.1707,0.183,0.1998,0.2029,0.2028,0.1973,0.1647,0.1633,0.1865,0.1863,0.1861,0.186,0.1859,0.1139,0.1114,0.1241,0.1308,0.1476,0.1593,0.1773,0.204,0.2192,0.2295,0.2379,0.2141,0.2068,0.204,0.2033,0.2355,0.2355,0.2355,0.2355,0.1155,0.117,0.1284,0.1398,0.1538,0.1648,0.1837,0.2073,0.2412,0.2588,0.2634,0.2543,0.2519,0.2464,0.2426,0.2422,0.2836,0.2836,0.2837,0.1195,0.122,0.1309,0.1415,0.1558,0.1678,0.1792,0.1983,0.2543,0.2861,0.2752,0.2731,0.2591,0.2546,0.2437,0.2377,0.2358,0,0]},{"header":{"parameterUnit":"m.s-1","parameterCategory":2,"la1":30.2992,"la2":30.254,"lo1":-89.0895,"lo2":-89.0443,"dy":0.0025,"dx":0.0025,"nx":19,"ny":19,"refTime":"2026-03-22T09:00:00:Z","depth":"0","parameterNumber":3,"parameterNumberName":"V-component_of_CURRENTS"},"data":[0,0,0,0.0557,0.0558,0.0652,0.0653,0.071,0.071,0,0,0,0,0,0,0,0,0,0,0,0.0533,0.0533,0.0557,0.0558,0.0652,0.0653,0.071,0.071,0,0,0,0,0,0,0,0,0,0,0,0.0533,0.0533,0.0533,0.0558,0.0652,0.0653,0.071,0.0663,0,0,0,0,0,0,0,0,0,0,0.0583,0.0569,0.0533,0.0533,0.0558,0.0652,0.0653,0.0662,0.0666,0.0639,0,0.0638,0,0.0654,0.0709,0.0709,0,0,0,0.0592,0.0566,0.057,0.0533,0.0559,0.0651,0.0619,0.0665,0.0669,0.0644,0.0639,0.0642,0.0655,0.0709,0.0709,0.0796,0.0797,0,0,0.0587,0.0573,0.0567,0.0572,0.0561,0.0616,0.0622,0.0669,0.0674,0.064,0.0643,0.0656,0.0709,0.0709,0.0795,0.0797,0,0,0,0.0549,0.0569,0.0576,0.057,0.058,0.0618,0.0625,0.0673,0.0669,0.0644,0.0657,0.0709,0.0709,0.0794,0.0796,0.0939,0,0,0,0.0548,0.0544,0.0573,0.057,0.0579,0.0638,0.0628,0.0667,0.0672,0.0656,0.0709,0.0709,0.0793,0.0795,0.0932,0.1008,0,0,0,0.0532,0.0543,0.0543,0.0568,0.059,0.0637,0.064,0.067,0.0677,0.0709,0.0709,0.0792,0.0795,0.0927,0.0997,0.1054,0,0,0,0.0531,0.0561,0.0543,0.06,0.0589,0.0688,0.064,0.0701,0.0735,0.0709,0.0793,0.0796,0.0925,0.0991,0.1048,0.116,0.1196,0,0,0.0575,0.0566,0.0607,0.0593,0.071,0.0679,0.082,0.0817,0.0764,0.0775,0.0779,0.0934,0.0997,0.1052,0.1302,0.1334,0,0,0,0.0628,0.0663,0.0698,0.0756,0.0797,0.0904,0.0892,0.0883,0.0915,0.0786,0.0944,0.098,0.101,0.1065,0.1091,0.1012,0.0807,0.0807,0.0807,0.0701,0.074,0.0838,0.0912,0.097,0.1046,0.1112,0.1099,0.1018,0.1047,0.1103,0.1256,0.1319,0.1339,0.1257,0.1103,0.1104,0.1104,0.1105,0.0828,0.0901,0.0951,0.1055,0.1137,0.1234,0.1312,0.1293,0.1342,0.1247,0.1268,0.1223,0.1377,0.1278,0.1114,0.1113,0.1111,0.111,0.111,0.0922,0.0955,0.1003,0.1126,0.1262,0.1358,0.1508,0.1526,0.1474,0.1525,0.1532,0.153,0.1434,0.1518,0.1519,0.152,0.152,0.1521,0.1521,0.0977,0.1027,0.1098,0.1216,0.1303,0.1465,0.1626,0.1695,0.1751,0.1713,0.1712,0.1501,0.1381,0.1354,0.1531,0.1529,0.1528,0.1527,0.1526,0.1101,0.1064,0.1179,0.1256,0.1475,0.1661,0.1793,0.198,0.2015,0.2057,0.1828,0.1797,0.1755,0.1733,0.1714,0.1973,0.1973,0.1973,0.1973,0.1138,0.1143,0.1258,0.1401,0.1606,0.1777,0.2036,0.2199,0.2159,0.2094,0.1966,0.189,0.1876,0.1833,0.1809,0.1786,0.2058,0.2058,0.2058,0.1198,0.121,0.1318,0.1442,0.1678,0.19,0.2121,0.2326,0.2247,0.2045,0.1838,0.1835,0.1698,0.1681,0.1583,0.1556,0.1506,0,0]}],[{"header":{"parameterUnit":"m.s-1","parameterCategory":2,"la1":30.2992,"la2":30.254,"lo1":-89.0895,"lo2":-89.0443,"dy":0.0025,"dx":0.0025,"nx":19,"ny":19,"refTime":"2026-03-22T09:00:00:Z","depth":"2","parameterNumber":2,"parameterNumberName":"U-component_of_CURRENTS"},"data":[0,0,0,-0.0452,-0.0451,-0.0456,-0.0457,-0.0498,-0.0498,0,0,0,0,0,0,0,0,0,0,0,-0.0483,-0.0483,-0.0452,-0.0451,-0.0456,-0.0457,-0.0498,-0.0498,0,0,0,0,0,0,0,0,0,0,0,-0.0483,-0.0483,-0.0484,-0.0451,-0.0456,-0.0457,-0.0498,-0.0492,0,0,0,0,0,0,0,0,0,0,-0.0485,-0.0489,-0.0483,-0.0484,-0.0451,-0.0456,-0.0457,-0.0492,-0.0492,-0.0497,0,-0.0504,0,-0.0476,-0.0499,-0.0499,0,0,0,-0.0478,-0.0488,-0.0489,-0.0484,-0.045,-0.0456,-0.0462,-0.0492,-0.0493,-0.0498,-0.0504,-0.0505,-0.0477,-0.0499,-0.05,-0.0457,-0.0456,0,0,-0.0478,-0.0483,-0.0489,-0.049,-0.046,-0.0461,-0.0461,-0.0492,-0.0497,-0.0505,-0.0505,-0.0477,-0.05,-0.05,-0.0457,-0.0456,0,0,0,-0.0459,-0.0483,-0.0484,-0.049,-0.0473,-0.0461,-0.0461,-0.0497,-0.0497,-0.0505,-0.0478,-0.05,-0.05,-0.0458,-0.0457,-0.0445,0,0,0,-0.046,-0.0469,-0.0484,-0.0487,-0.0472,-0.0474,-0.0465,-0.0497,-0.0498,-0.0478,-0.05,-0.05,-0.0458,-0.0457,-0.0447,-0.044,0,0,0,-0.0481,-0.047,-0.0475,-0.0487,-0.0473,-0.0473,-0.0477,-0.0497,-0.0479,-0.0499,-0.05,-0.0459,-0.0458,-0.0448,-0.0442,-0.0386,0,0,0,-0.0483,-0.0459,-0.0475,-0.044,-0.0473,-0.0437,-0.0476,-0.0453,-0.0463,-0.05,-0.0458,-0.0457,-0.0449,-0.0444,-0.0388,-0.0257,-0.0237,0,0,-0.0443,-0.0455,-0.043,-0.0443,-0.0405,-0.0438,-0.0405,-0.0434,-0.0446,-0.0457,-0.0456,-0.0446,-0.0442,-0.0386,-0.0176,-0.0158,0,0,0,-0.0409,-0.0404,-0.0392,-0.0379,-0.0365,-0.0378,-0.039,-0.0398,-0.041,-0.0439,-0.0421,-0.0418,-0.0383,-0.0308,-0.0293,-0.045,-0.045,-0.0451,-0.0451,-0.0376,-0.0367,-0.034,-0.0339,-0.0328,-0.033,-0.0338,-0.0353,-0.0371,-0.0362,-0.039,-0.0314,-0.0233,-0.022,-0.0369,-0.0369,-0.0369,-0.0369,-0.0369,-0.0331,-0.0328,-0.0324,-0.0299,-0.0315,-0.0305,-0.0309,-0.0322,-0.0311,-0.0344,-0.0311,-0.0276,-0.0203,-0.0367,-0.0367,-0.0368,-0.0368,-0.0368,-0.0368,-0.0337,-0.0337,-0.0322,-0.0304,-0.0302,-0.0304,-0.028,-0.0296,-0.029,-0.0275,-0.0161,-0.0159,-0.0307,-0.0246,-0.0245,-0.0245,-0.0245,-0.0245,-0.0244,-0.0364,-0.0345,-0.0334,-0.0314,-0.0306,-0.0296,-0.0266,-0.023,-0.0146,-0.0122,-0.012,-0.0272,-0.0276,-0.0297,-0.024,-0.0241,-0.0241,-0.0242,-0.0242,-0.0381,-0.0379,-0.0356,-0.0341,-0.0299,-0.0243,-0.0212,-0.0048,0.0005,0.0085,-0.0018,-0.0025,-0.0009,-0.0019,-0.0033,0.0089,0.0089,0.0089,0.0089,-0.0405,-0.0398,-0.0366,-0.0326,-0.0279,-0.0216,-0.0026,0.0138,0.0214,0.0242,0.0234,0.0224,0.0209,0.0235,0.0218,0.0208,0.0393,0.0393,0.0394,-0.0413,-0.0406,-0.0378,-0.0327,-0.026,-0.0158,0.0067,0.0327,0.0439,0.0399,0.0215,0.0123,0.0089,0.0072,0.0092,0.0074,0.0049,0,0]},{"header":{"parameterUnit":"m.s-1","parameterCategory":2,"la1":30.2992,"la2":30.254,"lo1":-89.0895,"lo2":-89.0443,"dy":0.0025,"dx":0.0025,"nx":19,"ny":19,"refTime":"2026-03-22T09:00:00:Z","depth":"2","parameterNumber":3,"parameterNumberName":"V-component_of_CURRENTS"},"data":[0,0,0,-0.0661,-0.066,-0.0595,-0.0595,-0.0491,-0.049,0,0,0,0,0,0,0,0,0,0,0,-0.0682,-0.0681,-0.0661,-0.066,-0.0595,-0.0595,-0.0491,-0.049,0,0,0,0,0,0,0,0,0,0,0,-0.0682,-0.0681,-0.0681,-0.066,-0.0595,-0.0595,-0.0491,-0.0545,0,0,0,0,0,0,0,0,0,0,-0.061,-0.0636,-0.0681,-0.0681,-0.0659,-0.0595,-0.0594,-0.0548,-0.0541,-0.0515,0,-0.0504,0,-0.0495,-0.0483,-0.0482,0,0,0,-0.0657,-0.0641,-0.0621,-0.068,-0.0659,-0.0595,-0.0623,-0.0544,-0.0537,-0.0507,-0.0502,-0.0499,-0.0494,-0.0482,-0.0482,-0.0454,-0.0454,0,0,-0.0661,-0.0671,-0.0626,-0.0617,-0.0639,-0.0625,-0.0621,-0.054,-0.0533,-0.0502,-0.0496,-0.0492,-0.0481,-0.0481,-0.0453,-0.0454,0,0,0,-0.0673,-0.0673,-0.0656,-0.0621,-0.0611,-0.0624,-0.0619,-0.0536,-0.053,-0.0495,-0.0491,-0.0481,-0.0479,-0.0453,-0.0454,-0.0497,0,0,0,-0.0675,-0.068,-0.0657,-0.0663,-0.0612,-0.0576,-0.0617,-0.0535,-0.0526,-0.0491,-0.0481,-0.0478,-0.0452,-0.0453,-0.0495,-0.0508,0,0,0,-0.0685,-0.0681,-0.0673,-0.0663,-0.0636,-0.0577,-0.0566,-0.0533,-0.0523,-0.0482,-0.0478,-0.0452,-0.0453,-0.0493,-0.0505,-0.0485,0,0,0,-0.0699,-0.0674,-0.0673,-0.0647,-0.0637,-0.0609,-0.0567,-0.0532,-0.05,-0.048,-0.0452,-0.0453,-0.0492,-0.0503,-0.0484,-0.0449,-0.0452,0,0,-0.0674,-0.0671,-0.0658,-0.0655,-0.0637,-0.0618,-0.0605,-0.054,-0.0513,-0.0475,-0.0474,-0.0496,-0.0505,-0.0485,-0.0517,-0.0518,0,0,0,-0.0655,-0.065,-0.0642,-0.0634,-0.0616,-0.0617,-0.057,-0.0558,-0.0533,-0.0499,-0.0508,-0.0512,-0.0498,-0.0474,-0.0476,-0.0459,-0.0459,-0.0459,-0.0459,-0.0643,-0.0642,-0.0636,-0.0637,-0.0626,-0.0612,-0.0607,-0.0589,-0.0553,-0.0563,-0.0557,-0.0585,-0.0564,-0.0564,-0.057,-0.057,-0.0571,-0.0571,-0.0571,-0.0638,-0.0652,-0.0652,-0.0652,-0.066,-0.066,-0.0644,-0.0631,-0.0619,-0.0607,-0.0591,-0.0535,-0.0567,-0.0575,-0.0574,-0.0573,-0.0573,-0.0573,-0.0573,-0.0669,-0.0677,-0.0677,-0.0687,-0.0697,-0.0691,-0.0671,-0.0671,-0.0655,-0.0656,-0.059,-0.0589,-0.0584,-0.0636,-0.0636,-0.0636,-0.0636,-0.0636,-0.0636,-0.071,-0.0707,-0.0712,-0.0718,-0.0721,-0.0713,-0.0686,-0.0665,-0.0643,-0.063,-0.0629,-0.0606,-0.0604,-0.0587,-0.0636,-0.0636,-0.0636,-0.0636,-0.0636,-0.075,-0.0745,-0.0743,-0.0743,-0.0724,-0.0677,-0.0651,-0.059,-0.0579,-0.0562,-0.06,-0.0601,-0.0572,-0.057,-0.0552,-0.0589,-0.0589,-0.0589,-0.0589,-0.0778,-0.0774,-0.0751,-0.073,-0.0708,-0.0655,-0.0528,-0.0466,-0.0491,-0.0518,-0.0521,-0.0511,-0.0514,-0.0481,-0.0481,-0.046,-0.0473,-0.0473,-0.0473,-0.0791,-0.0779,-0.0759,-0.0728,-0.0696,-0.0609,-0.0453,-0.0277,-0.032,-0.0468,-0.0497,-0.0582,-0.0575,-0.0577,-0.053,-0.0529,-0.0497,0,0]}],[{"header":{"parameterUnit":"m.s-1","parameterCategory":2,"la1":30.2992,"la2":30.254,"lo1":-89.0895,"lo2":-89.0443,"dy":0.0025,"dx":0.0025,"nx":19,"ny":19,"refTime":"2026-03-22T09:00:00:Z","depth":"4","parameterNumber":2,"parameterNumberName":"U-component_of_CURRENTS"},"data":[0,0,0,-0.0217,-0.0217,-0.0227,-0.0227,-0.0252,-0.0253,0,0,0,0,0,0,0,0,0,0,0,-0.0208,-0.0208,-0.0217,-0.0217,-0.0227,-0.0227,-0.0252,-0.0253,0,0,0,0,0,0,0,0,0,0,0,-0.0208,-0.0208,-0.0208,-0.0217,-0.0227,-0.0227,-0.0252,-0.0241,0,0,0,0,0,0,0,0,0,0,-0.0229,-0.0222,-0.0208,-0.0208,-0.0217,-0.0227,-0.0227,-0.024,-0.0242,-0.0252,0,-0.0252,0,-0.0257,-0.0255,-0.0255,0,0,0,-0.0214,-0.0221,-0.0224,-0.0208,-0.0217,-0.0227,-0.0222,-0.0241,-0.0242,-0.0254,-0.0252,-0.0253,-0.0257,-0.0255,-0.0255,-0.029,-0.029,0,0,-0.0213,-0.0211,-0.0222,-0.0225,-0.0218,-0.0221,-0.0222,-0.0242,-0.0243,-0.0252,-0.0254,-0.0258,-0.0255,-0.0255,-0.029,-0.029,0,0,0,-0.0214,-0.0211,-0.0213,-0.0223,-0.0227,-0.0222,-0.0222,-0.0242,-0.0242,-0.0254,-0.0258,-0.0255,-0.0256,-0.0289,-0.029,-0.028,0,0,0,-0.0213,-0.0211,-0.0212,-0.0211,-0.0226,-0.0234,-0.0222,-0.0241,-0.0243,-0.0258,-0.0255,-0.0256,-0.0289,-0.0289,-0.028,-0.0266,0,0,0,-0.0208,-0.0211,-0.0211,-0.0211,-0.0217,-0.0233,-0.0235,-0.0241,-0.0246,-0.0255,-0.0256,-0.0289,-0.0289,-0.028,-0.0266,-0.024,0,0,0,-0.0207,-0.0209,-0.0211,-0.0217,-0.0217,-0.0232,-0.0234,-0.0247,-0.0254,-0.0256,-0.0289,-0.029,-0.028,-0.0266,-0.024,-0.0172,0,0,0,-0.021,-0.0209,-0.0213,-0.0216,-0.0226,-0.023,-0.0243,-0.0253,-0.0263,-0.0283,-0.0284,-0.028,-0.0266,-0.024,-0.0191,0,0,0,0,-0.0215,-0.0217,-0.0221,-0.0227,-0.0236,-0.024,-0.0254,-0.026,-0.0273,-0.027,-0.0289,-0.028,-0.0264,-0.0227,-0.0291,-0.0291,-0.0291,-0.0291,-0.0291,-0.0221,-0.0223,-0.0228,-0.0231,-0.0239,-0.0251,-0.0254,-0.0266,-0.028,-0.0284,-0.0279,-0.0262,-0.0225,-0.0293,-0.0293,-0.0293,-0.0293,-0.0293,-0.0293,-0.0224,-0.0224,-0.0227,-0.0231,-0.0235,-0.0246,-0.0255,-0.0261,-0.0261,-0.028,-0.0264,-0.0229,-0.0292,-0.0292,-0.0293,-0.0293,-0.0293,-0.0293,-0.0293,-0.0225,-0.0223,-0.0227,-0.0227,-0.0229,-0.0236,-0.0219,-0.0234,-0.0244,-0.0236,-0.0184,-0.0246,-0.0237,-0.0225,-0.0225,-0.0225,-0.0225,-0.0224,-0.0224,-0.0222,-0.0223,-0.0221,-0.0222,-0.0216,-0.0205,-0.0196,-0.0176,-0.0182,-0.0157,-0.0225,-0.0238,-0.0241,-0.0233,-0.0222,-0.0222,-0.0223,-0.0223,-0.0223,-0.0214,-0.0222,-0.0214,-0.0208,-0.0181,-0.0167,-0.0161,-0.0093,-0.0066,-0.0036,-0.011,-0.0116,-0.0106,-0.0111,-0.0099,-0.0047,-0.0046,-0.0045,0,-0.0211,-0.0214,-0.0198,-0.0175,-0.0138,-0.0137,-0.0064,-0.0034,-0.0028,-0.0032,-0.0088,-0.0176,-0.0179,-0.0174,-0.0177,-0.0165,0,0,0,-0.0203,-0.0206,-0.0183,-0.0163,-0.0114,-0.0058,-0.004,-0.0007,-0.0042,0.0037,-0.0021,-0.0028,-0.0132,-0.0214,-0.0213,-0.0216,-0.0204,0,0]},{"header":{"parameterUnit":"m.s-1","parameterCategory":2,"la1":30.2992,"la2":30.254,"lo1":-89.0895,"lo2":-89.0443,"dy":0.0025,"dx":0.0025,"nx":19,"ny":19,"refTime":"2026-03-22T09:00:00:Z","depth":"4","parameterNumber":3,"parameterNumberName":"V-component_of_CURRENTS"},"data":[0,0,0,-0.0419,-0.0419,-0.0457,-0.0457,-0.0498,-0.0498,0,0,0,0,0,0,0,0,0,0,0,-0.041,-0.0411,-0.0419,-0.042,-0.0457,-0.0457,-0.0497,-0.0498,0,0,0,0,0,0,0,0,0,0,0,-0.041,-0.041,-0.0411,-0.042,-0.0457,-0.0457,-0.0497,-0.0473,0,0,0,0,0,0,0,0,0,0,-0.0438,-0.0433,-0.041,-0.0411,-0.042,-0.0457,-0.0457,-0.0471,-0.0474,-0.0477,0,-0.0483,0,-0.0487,-0.05,-0.05,0,0,0,-0.0426,-0.0431,-0.0435,-0.0411,-0.042,-0.0457,-0.0442,-0.0473,-0.0476,-0.048,-0.0483,-0.0485,-0.0487,-0.05,-0.05,-0.0523,-0.0523,0,0,-0.0424,-0.0424,-0.0433,-0.0437,-0.043,-0.044,-0.0443,-0.0475,-0.0482,-0.0483,-0.0486,-0.0488,-0.05,-0.05,-0.0523,-0.0523,0,0,0,-0.0414,-0.0422,-0.0426,-0.0435,-0.044,-0.0441,-0.0444,-0.0481,-0.048,-0.0486,-0.0488,-0.05,-0.0501,-0.0523,-0.0523,-0.0546,0,0,0,-0.0413,-0.0416,-0.0425,-0.0426,-0.0439,-0.0462,-0.0449,-0.0478,-0.0481,-0.0488,-0.05,-0.0501,-0.0523,-0.0523,-0.0546,-0.0551,0,0,0,-0.0408,-0.0415,-0.0418,-0.0426,-0.0438,-0.0462,-0.0464,-0.0479,-0.0482,-0.05,-0.0501,-0.0523,-0.0523,-0.0545,-0.055,-0.0541,0,0,0,-0.0409,-0.0424,-0.0419,-0.0439,-0.0437,-0.0466,-0.0464,-0.0489,-0.0505,-0.05,-0.0523,-0.0523,-0.0545,-0.055,-0.054,-0.0476,0,0,0,-0.0427,-0.0426,-0.0438,-0.0434,-0.0463,-0.0462,-0.0491,-0.0508,-0.0505,-0.0513,-0.0514,-0.0546,-0.055,-0.054,-0.0481,0,0,0,0,-0.0444,-0.0452,-0.0461,-0.0476,-0.0491,-0.0504,-0.0517,-0.0517,-0.0528,-0.0513,-0.0541,-0.0543,-0.0536,-0.0497,-0.0524,-0.0524,-0.0524,-0.0524,-0.0524,-0.0471,-0.0476,-0.0498,-0.0506,-0.0521,-0.0536,-0.0543,-0.0542,-0.0544,-0.0546,-0.0558,-0.0562,-0.0522,-0.0556,-0.0556,-0.0556,-0.0556,-0.0556,-0.0556,-0.0494,-0.0506,-0.0514,-0.0537,-0.0548,-0.0571,-0.057,-0.0569,-0.0569,-0.0568,-0.0561,-0.052,-0.0559,-0.0558,-0.0558,-0.0558,-0.0557,-0.0557,-0.0557,-0.0509,-0.0513,-0.053,-0.0556,-0.0578,-0.0589,-0.0585,-0.0593,-0.0586,-0.0587,-0.0532,-0.0568,-0.0569,-0.0584,-0.0584,-0.0584,-0.0584,-0.0584,-0.0584,-0.0516,-0.0528,-0.0549,-0.0572,-0.0588,-0.0598,-0.0599,-0.0585,-0.0585,-0.0544,-0.0592,-0.057,-0.0569,-0.057,-0.0583,-0.0583,-0.0583,-0.0583,-0.0583,-0.0525,-0.0536,-0.0558,-0.0577,-0.0595,-0.0588,-0.0591,-0.0539,-0.052,-0.0489,-0.051,-0.0514,-0.0494,-0.0495,-0.0492,-0.0483,-0.0483,-0.0482,0,-0.0532,-0.0537,-0.0564,-0.0579,-0.058,-0.0579,-0.0518,-0.0498,-0.0485,-0.0477,-0.054,-0.0568,-0.0569,-0.0552,-0.0551,-0.055,0,0,0,-0.0535,-0.0542,-0.0558,-0.0576,-0.0572,-0.0517,-0.05,-0.0472,-0.0485,-0.0434,-0.0462,-0.0467,-0.0543,-0.0583,-0.0561,-0.056,-0.0559,0,0]}]]